Wind_Speed
8 9 9 10 11 12 10 4 1 1 2 2 1 0 2 2 2 3 4 3 2 7 6 7 10 11 12 9 11 12 10 6 6 6 6 11 19 20 21 25 24 22 22 19 18 19 20 19 18 19 19 18 17 15 15 14 13 12 11 11 11 11 12 13 13 12 12 13 14 15 16 16 16 16 16 16 15 14 13 13 13 13 13 13 13 14 14 15 15 17 17 17 17 17 17 18 20
11 11 13 12 9 7 2 1 2 1 2 2 0 1 2 3 1 5 7 3 4 9 8 10 12 13 16 13 14 18 15 13 16 12 11 21 24 21 24 25 24 24 22 20 18 18 19 19 19 19 18 17 16 15 14 13 12 11 11 11 11 12 12 13 13 13 13 13 15 16 16 16 16 16 16 16 15 14 13 13 13 12 13 14 14 14 14 15 16 17 17 17 17 17 17 18 20
12 11 14 11 3 2 1 0 3 2 1 2 1 2 2 2 4 5 5 5 8 12 10 11 11 11 15 15 16 17 12 14 22 16 14 23 20 21 26 23 24 23 22 21 19 18 18 19 20 19 17 16 15 15 13 12 12 12 11 12 13 13 13 14 14 14 14 14 15 16 16 16 16 16 16 15 15 13 13 13 13 13 13 14 14 14 15 15 16 17 17 17 16 17 18 19 19
13 12 12 6 1 1 1 2 2 3 1 1 1 4 4 5 8 5 4 8 11 11 11 10 10 10 16 18 15 15 13 13 19 17 14 19 20 25 27 23 24 22 21 20 18 20 21 21 20 19 17 15 15 14 12 11 12 12 12 14 14 14 14 14 14 14 14 14 15 15 15 15 15 15 15 15 14 13 14 14 13 13 14 14 14 14 15 16 17 17 17 17 16 17 19 19 19
14 14 11 6 2 0 1 1 1 2 1 1 2 4 6 7 8 5 4 9 12 11 10 9 10 11 14 15 10 10 13 13 16 19 19 23 26 28 26 24 23 21 21 19 19 21 23 22 21 18 16 15 15 13 12 11 12 12 13 15 15 14 14 14 14 14 14 14 14 15 15 14 14 14 14 14 14 14 14 14 14 14 14 14 14 14 15 17 18 17 18 18 16 18 20 19 19
11 13 11 7 2 1 2 2 1 2 1 0 3 4 9 8 7 9 7 9 11 10 11 10 12 14 13 13 11 10 14 15 15 18 24 28 28 27 26 24 23 22 21 20 20 22 23 21 20 18 16 16 15 13 12 13 13 14 14 14 14 14 14 14 14 13 13 13 14 15 14 14 13 14 13 13 14 14 14 14 14 14 14 14 14 15 16 17 17 17 18 17 17 17 20 20 20
9 8 5 3 0 1 3 2 1 2 1 1 4 5 10 10 8 11 10 10 9 9 13 13 15 15 12 12 12 13 18 19 17 20 26 29 29 28 26 24 24 23 22 21 21 22 22 21 20 17 16 16 15 14 13 13 14 14 14 14 14 14 14 14 14 13 12 13 14 14 13 13 13 13 13 13 13 13 14 14 14 14 14 14 15 15 16 17 17 18 18 17 17 17 19 19 19
9 5 1 0 2 1 3 1 1 2 1 2 4 6 9 9 8 11 11 9 6 9 14 15 16 15 14 14 12 15 24 24 24 28 30 31 29 28 26 25 25 24 23 22 22 22 21 20 19 17 17 16 15 14 13 14 14 14 14 14 14 14 14 14 14 13 13 13 13 13 13 13 13 13 13 13 14 14 14 14 15 14 14 15 15 16 16 16 17 18 18 17 17 17 18 17 17
7 3 1 1 3 1 2 0 1 1 3 5 5 7 7 7 6 9 10 6 5 9 14 15 16 16 16 17 14 15 23 30 33 33 31 30 29 28 28 27 26 26 24 23 22 21 19 19 19 18 17 16 15 14 14 14 14 14 14 13 14 15 14 14 14 14 14 13 13 13 13 13 14 13 14 14 14 15 15 15 15 15 15 16 16 16 16 17 17 18 18 17 17 17 16 17 16
3 1 1 2 3 3 2 1 1 1 4 6 7 7 7 7 6 8 8 5 5 9 15 16 17 17 17 16 14 14 23 34 36 32 30 30 28 28 28 28 28 27 26 24 22 21 20 19 19 18 17 15 14 14 14 14 14 13 14 14 15 15 15 14 14 14 13 13 13 13 13 14 14 14 14 14 15 15 15 16 16 16 16 16 16 17 17 17 18 18 19 17 17 17 16 16 16
2 1 1 2 3 3 1 3 2 2 5 6 7 4 4 6 6 10 7 3 6 10 16 16 17 18 18 14 11 18 29 34 33 33 32 29 26 27 27 27 28 27 27 24 22 21 21 20 19 18 17 15 14 15 14 14 14 13 14 15 15 15 14 14 13 13 13 13 13 13 13 14 15 15 14 15 15 15 16 15 16 17 16 16 17 17 18 18 18 18 18 17 16 17 17 16 17
3 1 1 3 2 1 2 3 5 4 6 5 7 3 1 5 7 10 6 4 6 6 10 13 15 17 17 12 10 21 30 29 30 32 32 31 28 27 27 27 27 27 26 25 23 22 22 21 20 18 16 15 15 15 14 14 14 14 15 15 15 14 14 14 13 13 13 13 14 13 13 14 15 14 14 15 15 15 15 15 16 17 17 17 17 17 18 18 18 17 17 17 17 17 17 16 17
2 1 1 3 2 1 3 3 6 7 6 4 5 1 1 4 8 9 6 6 4 2 7 13 17 16 16 13 11 18 24 26 28 29 31 33 30 27 27 27 27 26 26 25 24 22 21 21 19 18 17 16 16 15 14 14 14 14 14 14 14 14 14 13 12 13 14 14 14 14 14 14 14 14 14 15 15 15 15 15 16 17 17 17 17 17 17 17 17 17 17 18 17 17 17 17 17
2 1 1 2 2 1 2 3 5 6 5 4 4 1 1 4 7 8 7 9 3 2 3 11 17 16 15 14 12 13 18 26 28 26 29 32 30 27 27 26 26 26 25 24 24 22 20 19 19 19 17 16 16 16 15 14 14 14 13 13 13 14 14 13 12 12 13 14 15 15 14 14 14 15 15 15 15 16 15 15 16 16 16 17 17 16 16 16 17 17 17 18 17 17 17 17 18
2 0 0 2 2 2 4 1 7 6 5 5 2 1 5 4 5 7 5 8 5 4 6 5 14 13 14 16 13 13 22 29 27 26 28 30 29 26 27 26 25 25 24 24 22 21 20 20 19 19 17 16 16 15 15 15 14 14 13 13 13 13 14 14 13 12 13 14 14 14 14 14 14 14 15 15 15 15 15 15 15 16 16 16 16 16 16 16 16 17 18 18 17 17 17 17 18
3 1 1 3 2 2 4 2 6 6 5 5 4 3 7 6 4 5 5 4 2 3 3 6 12 11 15 16 18 23 29 30 27 29 30 29 26 25 25 24 24 24 23 23 21 21 20 20 19 18 18 17 16 16 16 15 15 14 14 13 13 14 14 14 13 13 14 14 14 14 13 14 14 13 14 14 14 14 15 15 15 15 15 16 16 16 17 17 18 18 18 17 17 17 17 18 19
4 2 1 3 1 2 3 2 3 6 8 7 6 5 7 7 4 4 4 2 1 3 3 7 12 14 17 18 26 32 30 29 28 29 30 27 24 22 23 22 23 23 22 22 22 22 21 20 20 19 18 17 17 17 15 14 15 15 14 14 13 14 14 14 14 14 14 14 14 13 13 14 14 13 13 13 14 14 15 15 15 15 15 15 15 16 18 19 19 18 18 17 17 17 17 18 18
4 1 1 2 1 5 1 2 5 8 10 9 8 6 7 9 5 4 5 2 2 3 3 9 16 16 21 25 32 33 29 29 28 28 28 25 23 22 21 21 22 22 22 22 22 22 21 20 21 21 19 17 17 16 15 14 15 15 15 14 14 15 15 14 14 15 14 14 14 13 13 12 12 12 13 13 12 13 14 15 15 15 16 16 16 18 19 20 20 19 18 18 17 17 17 17 16
3 1 1 2 3 8 7 8 9 8 10 9 8 5 6 8 5 3 5 4 4 5 4 10 18 19 24 28 31 31 30 29 27 27 26 24 23 23 21 20 21 21 22 23 22 21 21 20 20 22 21 18 17 16 16 15 16 16 15 15 14 15 15 15 13 13 13 13 13 12 12 12 11 12 13 13 13 14 14 14 15 16 17 17 18 18 18 18 17 17 17 16 15 14 13 12 13
1 1 1 2 1 9 11 11 10 9 11 10 7 4 6 7 5 3 6 6 4 6 6 10 18 22 24 24 27 29 28 27 26 25 23 23 22 22 22 21 20 20 21 22 22 20 20 20 19 21 22 20 18 17 17 16 16 16 15 16 16 15 15 14 12 11 12 13 13 13 12 12 12 12 13 14 13 14 15 16 16 16 17 17 16 15 15 14 13 12 12 11 10 10 9 7 6
2 2 1 3 3 8 13 13 14 12 10 10 7 7 8 6 5 4 7 6 2 3 7 15 21 23 25 23 24 26 26 25 24 23 22 21 21 20 20 21 21 20 21 21 21 20 19 20 20 20 20 20 20 18 17 16 16 16 16 16 15 14 14 12 11 11 12 13 14 13 12 12 13 14 14 13 13 14 15 15 14 14 14 13 12 11 10 10 10 9 7 7 6 5 7 8 6
5 2 3 7 6 8 15 13 16 14 10 11 8 8 8 5 5 3 6 5 1 2 5 17 22 22 25 23 23 23 23 22 22 22 22 21 20 19 20 20 20 20 21 20 21 21 20 20 20 19 18 19 21 19 17 17 16 14 15 15 14 14 13 13 12 11 12 14 15 14 11 13 14 13 12 13 14 14 14 13 11 10 10 9 9 8 7 8 8 6 4 4 4 3 3 4 6
4 0 5 10 7 8 17 14 16 15 11 11 8 8 7 6 6 3 4 2 3 2 6 15 21 22 26 24 22 22 20 20 20 21 21 21 20 19 20 20 20 20 20 20 20 22 21 20 20 19 18 19 20 19 18 18 18 16 15 16 15 14 13 15 13 11 13 14 15 14 12 13 14 12 13 13 13 13 13 12 10 9 9 9 8 7 6 5 5 5 4 3 3 5 5 7 8
4 2 7 10 4 7 18 17 17 16 13 11 9 9 7 7 7 4 4 3 5 6 8 14 21 22 24 22 21 21 20 20 20 21 21 21 20 20 20 20 19 18 20 20 19 21 21 20 20 20 19 19 19 17 17 17 17 17 17 17 16 13 13 15 14 12 14 14 15 15 13 12 12 13 14 11 10 11 11 11 9 8 8 9 8 8 7 4 4 5 5 4 6 8 8 7 7
5 5 6 6 1 5 17 18 17 17 12 11 11 10 8 6 7 6 6 5 7 7 8 15 20 21 21 20 21 20 19 19 20 21 21 20 20 21 19 19 19 18 20 20 19 20 21 20 20 20 18 18 18 17 18 17 17 17 16 17 16 14 15 16 15 13 12 12 12 12 12 11 10 11 12 11 11 11 11 10 9 9 9 9 8 8 7 6 5 5 5 5 8 8 7 7 7
5 7 7 5 2 2 12 17 17 16 12 11 12 10 8 7 7 4 3 5 6 7 13 17 18 21 19 18 20 18 18 18 19 20 19 20 20 21 20 18 18 18 19 19 18 19 20 21 20 20 19 18 18 16 18 18 17 16 14 15 15 14 15 16 17 16 15 14 12 11 11 10 10 11 12 12 11 12 12 11 10 10 9 8 7 6 7 7 6 7 6 4 5 6 5 6 7
6 8 8 6 3 5 9 18 15 14 14 13 12 9 7 6 5 2 4 7 6 10 17 19 19 19 18 18 18 16 18 18 19 20 19 19 20 20 20 19 19 18 19 18 18 18 19 20 19 19 19 19 17 16 17 17 15 15 14 14 14 14 14 14 15 15 16 16 14 12 12 12 11 13 13 11 10 11 11 10 9 9 8 7 8 8 7 7 7 7 6 4 5 6 5 5 5
4 4 6 5 4 8 7 19 14 12 13 11 10 7 5 3 4 4 8 8 8 14 18 19 19 17 18 19 17 14 15 19 21 19 19 19 19 19 19 19 20 19 19 19 18 17 19 19 18 18 18 17 17 16 17 17 15 14 14 13 13 13 13 13 13 14 15 15 13 12 14 15 13 14 14 13 12 10 9 9 8 8 8 8 9 9 8 7 6 5 5 4 5 6 5 5 4
3 2 4 6 7 10 7 17 12 11 12 12 12 7 3 6 4 5 11 8 10 17 18 18 18 16 18 18 16 14 14 19 20 18 18 19 19 20 19 19 20 19 19 19 18 18 19 19 19 18 17 16 16 15 15 15 15 14 13 12 13 12 11 12 12 13 14 13 12 11 13 14 13 14 14 13 13 11 11 11 10 9 10 9 8 8 8 7 5 5 6 5 4 4 5 5 4
5 5 5 6 7 6 9 15 13 12 12 14 11 4 3 8 5 4 7 6 9 17 18 17 18 15 16 17 14 14 15 16 17 17 18 18 18 19 19 20 20 19 18 19 19 19 19 18 18 17 16 15 15 14 14 14 14 13 12 13 13 11 11 12 11 12 12 12 11 11 12 12 11 12 12 12 11 11 10 10 10 10 9 9 9 9 6 6 5 4 5 4 3 2 3 5 4
6 7 7 5 5 4 12 13 13 13 9 13 7 2 4 8 7 5 4 2 6 14 19 16 17 16 15 15 14 14 14 15 17 19 19 18 18 18 19 20 20 19 19 19 18 18 18 17 16 16 16 15 15 14 14 13 13 12 12 13 12 10 12 11 11 12 12 12 12 10 11 11 11 10 10 11 11 10 9 9 11 10 9 8 8 8 6 4 4 3 2 2 2 1 3 5 5
6 7 6 5 5 4 12 10 10 11 10 13 8 3 6 8 10 7 5 4 5 9 18 17 16 17 16 15 14 14 13 16 19 19 20 20 18 18 19 19 20 19 19 19 19 18 18 17 16 17 17 15 15 14 13 13 12 12 12 13 12 11 12 11 11 13 11 11 11 10 11 11 11 10 9 10 9 10 9 9 10 8 8 9 6 6 6 4 4 2 2 1 2 2 4 6 6
7 7 6 6 7 5 10 9 8 12 12 12 8 3 4 6 12 9 6 7 4 3 10 16 18 17 16 14 13 14 13 15 16 18 21 20 18 18 19 19 20 20 20 20 19 19 19 17 16 17 17 15 15 14 13 13 11 12 12 12 11 11 12 12 11 12 12 11 10 10 11 11 11 11 10 9 8 9 10 10 10 7 7 9 7 5 5 5 3 2 3 2 2 2 2 5 6
7 8 6 7 9 8 9 10 9 12 10 8 7 4 2 5 12 10 7 5 1 1 4 7 12 15 15 13 14 13 13 14 13 17 21 19 19 19 19 19 19 20 20 20 20 20 19 17 16 17 16 15 15 14 14 12 11 11 11 11 12 11 11 12 11 12 12 12 11 10 11 11 11 12 10 9 8 9 10 11 9 8 8 9 7 4 5 5 3 3 3 2 2 2 2 4 5
9 9 7 7 9 7 10 12 11 12 10 8 9 7 5 6 9 6 8 6 3 3 4 5 4 13 15 13 15 14 14 14 13 18 22 20 20 20 19 19 19 20 20 20 20 20 20 18 17 18 17 15 15 15 14 12 12 11 10 10 11 10 11 12 12 12 12 11 11 11 11 11 11 12 9 7 9 10 10 10 8 8 8 8 7 5 5 5 4 4 3 2 1 2 2 3 4
11 12 9 8 8 7 11 14 12 12 9 8 9 8 10 11 7 7 9 8 6 4 4 4 6 10 14 13 14 14 14 15 15 20 22 20 20 20 20 19 19 19 20 21 19 20 21 19 19 19 17 16 15 15 14 12 12 11 10 11 10 10 12 12 12 12 13 12 12 12 12 11 11 11 9 7 9 11 10 8 8 7 6 6 6 5 5 5 4 4 3 2 1 1 1 3 3
14 10 8 9 9 7 12 17 13 12 7 7 10 8 11 14 10 9 10 10 8 7 7 4 7 5 10 13 15 16 14 14 18 21 21 20 20 21 21 19 20 20 20 21 19 20 21 19 20 20 18 18 16 15 14 13 13 11 11 12 10 11 12 12 12 12 13 13 12 12 12 11 11 11 9 8 8 9 10 8 8 8 6 7 6 5 6 6 5 4 3 3 1 1 1 2 4
16 10 7 7 9 5 12 19 13 12 8 6 11 9 7 12 11 10 11 10 9 8 9 8 6 1 2 6 10 15 14 14 17 19 21 21 21 21 22 20 20 21 21 21 19 19 20 19 20 20 19 19 17 16 15 14 13 12 11 11 11 11 10 10 12 12 13 14 13 11 10 10 10 10 10 9 8 8 10 8 7 7 6 7 6 5 5 5 5 3 3 3 1 1 1 2 4
14 9 8 8 8 7 13 19 16 11 6 6 12 10 6 10 13 12 12 10 7 8 9 8 7 4 2 5 3 10 15 15 16 17 20 22 22 22 22 20 20 21 21 21 19 19 20 20 21 20 19 19 16 16 16 14 13 12 11 11 11 11 10 9 11 12 12 13 13 11 11 11 9 9 9 9 9 8 9 8 7 6 7 8 7 6 5 4 5 3 3 2 1 2 3 4 3
10 8 6 7 7 10 9 16 22 15 8 9 12 9 8 9 11 11 11 10 8 9 10 8 7 7 7 6 6 9 14 15 16 17 18 21 22 23 22 20 21 21 21 21 20 19 19 20 21 20 19 18 16 17 16 14 13 12 11 10 9 9 10 9 9 11 12 12 12 11 10 11 10 9 9 8 8 8 8 8 7 6 6 8 7 7 6 5 5 3 3 3 0 0 3 5 3
8 10 9 6 6 10 7 10 18 17 12 13 13 7 7 10 10 9 10 10 10 11 13 10 8 6 5 7 9 10 11 13 16 18 17 19 21 22 22 21 21 21 21 21 21 20 19 19 21 20 18 18 16 17 17 14 14 13 11 11 9 8 10 10 9 10 11 12 12 11 10 10 9 10 9 8 9 9 7 6 8 8 6 7 7 6 5 5 4 4 3 3 2 2 3 4 3
7 11 13 9 9 14 9 9 10 10 9 12 13 7 6 9 11 10 10 12 11 11 13 12 8 5 4 7 10 9 9 11 15 17 17 18 21 22 23 22 22 22 21 21 21 21 19 20 22 20 19 18 16 16 16 15 15 14 12 12 10 9 10 10 10 9 10 11 10 11 11 11 9 9 9 8 9 10 8 6 7 8 7 7 6 5 5 4 4 4 4 3 3 3 4 3 2
5 10 15 13 12 16 12 9 8 7 6 14 17 7 5 9 10 11 12 13 15 14 14 13 9 6 5 7 10 10 9 10 13 16 17 18 20 21 22 22 23 22 22 22 21 21 21 22 23 21 19 18 17 17 16 15 16 15 13 12 11 11 10 10 10 9 10 10 9 11 12 11 10 9 10 9 8 9 8 7 6 7 8 6 4 4 4 4 4 4 5 3 3 5 3 2 2
6 8 13 15 16 15 10 7 8 7 5 13 17 8 6 8 8 11 15 14 15 16 14 11 8 7 7 9 10 11 10 9 11 13 15 17 20 22 22 22 23 23 23 23 22 22 23 24 24 22 21 19 18 18 17 16 16 16 15 13 12 12 10 10 10 9 9 9 9 10 11 11 11 10 10 9 8 9 8 8 8 6 8 7 5 4 4 5 5 5 5 4 4 6 4 2 2
9 6 8 15 17 11 6 7 9 9 8 7 11 10 6 7 6 6 10 11 12 14 14 11 9 8 10 11 10 9 8 8 9 10 11 14 20 23 23 23 23 23 24 24 23 23 24 26 25 22 22 20 19 20 19 17 16 16 15 14 12 12 11 11 11 10 9 9 8 9 10 11 10 10 11 10 9 9 8 8 8 7 6 7 6 5 4 4 6 6 5 5 4 5 4 2 1
11 9 9 11 13 8 6 8 8 8 8 6 10 13 7 5 7 4 4 7 9 10 12 12 14 13 14 13 11 9 8 8 8 7 8 13 19 23 23 22 22 22 23 23 23 23 24 25 26 23 22 21 20 21 21 18 16 15 15 14 13 13 12 11 12 11 9 9 9 9 10 11 10 9 10 10 10 10 9 7 8 8 6 6 5 6 5 5 5 6 5 5 5 5 4 3 2
10 6 8 8 9 8 8 6 5 6 7 9 12 15 9 5 7 6 5 6 8 8 9 10 14 15 14 12 13 13 10 8 6 6 8 13 19 22 22 22 22 20 20 22 22 23 23 24 25 24 23 23 21 22 22 19 17 16 16 15 14 13 12 11 12 12 11 10 10 10 9 10 10 10 10 11 11 10 9 8 8 8 8 7 6 7 7 5 5 5 5 6 5 5 5 3 3
10 6 6 6 4 6 7 5 6 6 6 9 13 14 11 7 7 8 8 10 11 8 9 11 12 13 11 9 11 13 10 8 8 7 9 11 13 17 19 19 20 18 18 20 19 20 23 24 25 24 23 23 23 23 22 20 18 17 17 16 14 14 13 12 13 13 13 12 10 10 10 10 10 10 11 11 11 11 11 10 9 9 9 8 6 6 6 6 6 5 5 5 4 4 4 3 4
10 7 6 6 5 6 7 8 8 7 7 9 13 13 5 6 7 10 10 11 13 10 10 12 13 12 11 8 7 9 9 9 9 7 8 8 7 11 15 16 16 15 15 18 17 17 21 24 25 25 24 23 23 23 23 21 20 18 17 17 15 15 14 13 14 13 13 13 12 11 11 10 11 10 11 12 10 11 11 11 10 9 8 8 8 8 6 6 7 6 6 4 4 4 4 3 4
10 8 7 7 7 7 7 8 8 7 9 12 15 12 5 8 7 10 10 9 11 10 8 10 13 11 9 8 7 7 9 10 10 8 7 5 5 8 12 13 15 15 15 18 19 18 18 21 25 25 24 23 22 23 23 22 21 19 18 18 17 16 15 14 14 14 14 14 13 12 12 11 11 11 11 12 11 11 11 11 11 10 8 8 8 8 7 6 6 7 7 5 4 5 4 4 4
9 9 8 8 8 7 7 7 8 8 8 12 15 8 7 9 8 10 11 10 10 9 8 10 13 10 6 5 6 7 9 9 7 7 6 4 5 5 7 11 15 16 18 18 18 20 18 19 24 25 23 24 22 22 23 22 22 20 19 18 18 17 17 15 15 14 14 15 14 13 13 12 12 11 11 11 12 12 12 12 12 10 10 9 8 8 7 7 6 6 6 5 5 6 5 4 5
9 9 8 9 8 7 6 7 9 9 8 8 7 2 7 9 10 11 11 11 10 9 10 12 14 12 6 3 4 5 6 7 5 5 5 4 6 6 5 7 7 9 14 15 13 16 18 19 23 24 22 22 22 22 22 21 21 20 19 19 19 18 18 17 16 16 15 16 15 15 15 14 12 12 12 11 11 12 12 12 12 11 10 10 10 10 8 7 8 6 5 5 5 5 5 4 5
6 9 10 8 9 9 7 6 9 9 9 6 6 9 9 10 10 10 12 13 11 10 11 12 13 14 10 5 5 4 2 2 4 5 5 5 8 8 7 7 4 5 10 11 6 3 7 14 20 21 19 19 21 22 21 20 20 20 20 20 20 19 19 18 17 17 16 16 16 16 15 15 13 12 13 13 12 13 13 12 11 11 11 10 9 9 9 8 8 8 7 7 7 5 5 5 6
5 8 10 9 10 11 6 5 8 9 9 6 11 15 12 10 8 10 14 15 13 11 10 10 11 12 10 8 7 4 4 2 2 4 5 7 9 9 9 9 7 8 11 14 13 8 9 14 16 17 18 18 20 20 19 19 20 20 19 20 20 19 19 18 17 17 16 16 17 17 16 16 15 14 12 13 14 14 13 13 12 11 11 11 10 9 9 9 9 9 9 9 8 7 7 7 7
10 5 5 6 8 8 6 5 6 7 8 6 12 16 12 9 9 13 15 14 14 12 11 10 9 9 8 8 8 6 8 8 3 5 5 7 9 9 8 8 8 10 12 16 18 17 19 19 17 20 21 17 18 18 17 19 20 19 18 19 20 20 19 19 18 18 17 17 17 17 17 16 17 16 14 13 15 15 14 14 13 12 12 12 11 11 10 10 10 9 8 8 8 9 9 8 7
10 7 6 6 6 6 7 6 5 5 7 6 7 8 5 5 7 13 14 13 13 13 11 10 9 8 7 6 6 6 8 9 6 9 6 6 9 8 6 8 9 12 15 17 16 15 17 18 19 23 20 16 17 16 15 17 18 17 17 17 19 20 20 20 19 19 19 18 17 17 17 17 17 17 16 14 15 15 15 15 14 13 13 12 12 12 11 11 12 10 9 9 9 10 11 10 8
8 6 6 6 6 6 7 7 7 6 5 4 5 5 3 3 4 11 14 12 12 12 12 10 9 9 7 5 5 6 6 9 8 9 8 3 3 5 4 5 7 11 16 20 17 16 15 17 21 21 17 18 19 14 12 14 14 16 17 17 17 18 19 20 20 20 20 19 19 18 18 17 17 17 17 16 16 16 16 16 15 14 14 14 14 13 12 13 13 12 11 10 10 11 11 10 10
9 8 8 8 8 7 7 7 9 8 6 3 4 7 5 2 5 10 12 12 12 12 12 10 9 10 8 5 4 3 4 8 10 11 11 10 10 8 4 3 2 6 13 20 17 12 10 13 17 17 15 18 19 16 16 14 14 17 20 20 20 18 19 20 20 20 21 20 21 21 19 18 18 18 18 18 18 17 16 16 15 15 15 15 15 15 14 13 14 13 12 11 11 11 11 10 10
Wind_Direction
159 161 180 202 214 223 231 227 290 233 217 271 259 268 183 105 106 163 83 57 65 83 71 75 87 89 96 100 100 68 40 79 93 104 108 126 141 144 139 134 133 129 128 129 126 127 129 127 127 128 123 119 114 110 106 104 107 108 106 105 108 115 117 110 105 106 105 103 101 95 94 96 96 94 90 88 88 89 92 96 101 104 105 105 105 104 103 104 104 102 97 97 99 100 100 98 96
178 180 199 208 223 229 212 37 263 219 217 245 304 285 163 88 109 146 128 160 111 95 75 77 87 87 98 102 91 69 49 59 82 86 102 128 135 138 139 136 133 130 129 130 129 129 131 131 129 126 120 115 111 109 107 109 113 110 109 112 113 114 110 104 102 102 100 96 93 91 92 94 94 92 89 89 91 93 96 99 104 107 108 107 106 104 101 103 102 100 98 99 102 103 102 100 98
203 213 222 206 219 275 130 177 249 267 232 211 111 184 197 121 136 138 145 145 110 102 85 74 74 82 92 84 78 81 76 72 89 97 114 131 132 137 141 135 132 130 129 131 131 132 132 132 129 123 117 113 111 112 113 117 116 113 114 112 110 108 104 101 101 98 95 93 91 91 91 92 91 92 92 92 93 95 98 99 103 107 108 107 106 105 103 104 103 101 102 102 104 106 104 101 101
219 238 238 202 135 325 201 214 257 295 290 189 135 159 184 158 136 135 157 131 109 98 90 83 75 80 88 89 90 90 92 83 97 111 124 135 137 138 139 134 132 128 129 130 129 134 133 130 125 119 117 116 117 118 120 119 115 113 111 106 103 100 99 98 98 96 96 95 93 92 90 90 89 89 90 91 94 95 97 99 100 102 103 104 105 104 104 103 102 102 103 105 108 107 102 100 102
228 252 242 203 201 236 226 249 269 261 240 207 135 161 167 150 138 153 172 122 108 104 108 101 94 97 90 91 99 97 105 103 105 116 124 132 136 136 136 134 132 129 129 128 129 133 132 128 122 120 123 123 123 124 124 118 113 111 104 99 98 97 97 96 96 96 98 96 95 94 91 91 89 87 87 91 96 98 100 100 99 100 101 103 104 103 102 102 104 104 104 105 105 101 98 97 99
233 259 247 224 198 147 234 260 264 227 275 268 156 173 151 148 157 151 144 112 105 114 110 96 100 104 92 85 88 100 117 118 114 122 127 130 136 136 135 136 132 130 129 128 131 134 132 126 122 124 127 127 127 125 122 118 113 107 102 98 98 99 98 98 100 99 98 97 96 95 94 94 92 90 91 93 97 99 100 99 99 100 101 104 105 104 103 103 104 104 103 103 100 97 96 96 97
233 252 243 247 218 172 260 284 273 231 300 227 171 162 146 152 155 137 132 120 113 119 111 102 105 99 92 95 92 102 114 119 123 127 130 132 136 136 136 135 131 130 130 129 131 134 132 125 124 128 130 131 128 123 119 117 111 106 104 102 101 101 101 101 103 104 100 95 95 96 98 98 95 93 93 94 94 95 96 98 100 100 101 103 105 104 104 103 104 103 102 102 102 100 98 98 97
234 253 93 198 252 211 263 277 223 218 135 173 172 151 149 149 142 138 134 127 132 124 113 110 106 97 96 99 98 110 113 118 124 126 130 133 135 136 136 134 131 130 129 129 132 135 131 127 129 132 134 132 126 123 119 115 110 109 107 105 105 103 102 103 105 108 105 97 97 100 100 100 97 96 95 94 92 92 94 97 99 100 102 103 106 105 104 105 104 103 103 104 103 101 100 99 99
218 241 68 242 265 258 254 211 135 194 142 161 151 142 148 141 146 143 124 117 144 114 104 111 106 102 105 101 101 109 114 120 125 128 132 134 137 138 137 136 133 130 129 130 133 135 132 132 135 136 136 132 127 124 120 116 112 112 110 107 108 106 104 104 107 110 110 106 105 105 105 104 101 98 96 93 90 91 94 95 97 100 102 103 106 107 106 106 105 105 106 106 104 103 102 101 105
193 150 313 282 296 291 272 117 151 193 147 146 127 138 150 142 146 113 93 102 130 100 99 108 103 106 111 105 105 112 120 126 129 132 134 136 137 138 138 136 133 131 131 133 134 135 135 136 137 138 137 132 129 125 121 119 116 115 110 106 105 107 108 107 109 112 112 111 110 109 108 107 104 100 96 94 91 92 94 95 97 99 101 102 105 107 108 108 107 108 108 109 108 108 107 107 111
215 78 17 291 300 311 319 130 165 178 137 125 114 133 136 131 127 101 98 106 101 104 110 110 106 109 111 105 107 121 127 130 132 134 136 136 135 135 135 134 133 132 133 134 134 134 135 136 138 138 136 131 129 124 122 120 118 114 108 108 108 108 108 107 109 111 111 111 110 107 106 106 103 99 96 94 92 93 94 95 97 99 101 103 105 107 108 108 109 110 111 112 112 112 112 112 114
242 71 57 289 302 327 281 156 142 142 130 122 118 111 94 128 114 104 117 92 66 96 114 116 118 114 114 112 117 129 132 133 133 134 136 134 133 133 132 134 134 133 133 133 132 133 136 137 137 136 132 129 127 121 120 119 116 112 108 110 110 109 108 109 111 111 110 111 110 107 107 105 101 99 96 95 93 93 94 95 97 100 103 104 105 108 110 110 111 113 116 117 117 116 116 115 114
243 244 269 299 319 329 270 165 133 129 121 112 111 62 318 123 110 110 122 98 39 24 111 123 126 119 117 117 127 135 134 133 132 134 134 131 133 135 135 136 135 133 133 132 132 135 137 136 135 134 132 128 124 120 119 116 114 113 111 112 112 111 111 111 112 114 114 115 114 111 109 106 103 101 98 96 95 94 95 95 96 100 103 104 108 110 111 112 115 118 121 120 119 118 118 117 116
232 213 230 286 319 319 270 163 134 123 106 97 97 49 82 95 110 122 126 121 128 265 112 129 127 116 119 126 134 138 135 135 135 136 133 129 132 134 134 135 134 134 133 133 134 136 135 134 135 134 131 128 123 121 120 118 118 117 115 115 114 113 115 116 116 117 117 117 114 111 110 107 105 103 99 97 95 96 97 97 98 101 105 107 110 111 112 114 118 120 121 120 118 117 118 119 118
206 266 201 277 354 8 306 109 118 111 100 118 141 135 105 85 107 111 102 122 163 263 318 132 131 120 135 143 140 141 140 138 138 135 126 125 131 132 132 135 135 135 133 134 135 135 135 134 135 135 133 131 127 125 123 123 122 120 118 118 117 118 118 118 119 118 118 116 112 110 110 108 107 106 102 96 94 96 98 100 101 103 108 110 112 113 116 117 118 118 118 117 116 116 118 116 114
160 21 308 302 7 44 329 38 109 111 111 133 167 168 114 95 99 91 68 82 169 245 286 162 144 135 144 144 137 140 140 139 140 133 122 124 132 130 132 137 136 134 135 137 137 135 136 136 135 136 135 132 130 128 127 127 126 123 120 120 120 120 119 119 120 119 118 115 111 110 110 110 110 109 103 97 94 96 98 100 102 105 108 112 114 116 117 116 116 115 115 115 115 116 116 114 113
114 63 315 308 327 92 340 349 99 115 125 134 146 171 134 113 109 95 94 98 202 201 228 168 142 136 139 138 137 139 139 138 139 133 126 129 133 131 134 140 140 138 139 137 135 136 137 138 139 138 137 136 135 131 129 129 128 125 122 122 120 122 123 124 123 121 118 116 115 114 113 112 110 109 106 99 96 98 99 100 103 107 109 112 116 118 119 117 116 115 114 115 115 115 114 113 113
115 91 247 293 36 99 163 105 89 115 129 138 145 162 138 125 133 125 126 143 196 185 198 149 133 131 132 135 139 138 139 140 140 137 135 138 139 139 143 148 146 141 140 133 132 138 139 141 142 139 138 139 138 132 129 131 130 128 127 125 122 125 128 127 125 122 120 121 120 119 116 113 112 113 110 104 100 101 103 103 105 108 110 112 113 114 116 115 115 115 113 113 112 111 111 113 114
131 210 232 307 39 98 135 111 95 119 128 134 141 142 126 130 139 148 158 159 171 162 164 140 128 128 132 138 141 140 142 143 143 143 142 144 144 145 146 146 142 138 139 133 135 140 140 145 144 139 139 139 137 132 132 133 132 132 133 132 129 130 131 130 129 127 127 130 129 125 121 118 119 116 114 114 108 104 105 106 106 108 110 111 111 111 111 111 110 112 113 114 115 113 113 116 116
142 226 280 288 73 106 123 115 107 124 130 130 131 127 124 133 138 169 171 155 166 161 160 145 132 135 139 143 143 142 144 144 146 146 145 146 145 145 144 142 141 141 141 136 137 141 143 148 145 142 144 142 139 136 137 140 140 139 138 138 138 137 134 133 135 135 134 137 135 127 124 122 120 117 115 116 110 105 106 108 108 108 110 110 109 109 110 111 111 116 121 123 129 129 138 158 151
156 235 308 267 225 119 121 126 123 128 133 127 125 133 132 136 133 157 163 145 182 203 164 147 140 142 142 145 146 145 146 146 149 149 147 147 146 145 144 143 144 144 142 138 139 142 145 146 143 143 146 147 144 140 142 146 144 141 144 145 142 143 142 143 153 150 138 138 132 123 125 129 127 121 118 120 119 114 112 112 112 113 115 114 111 112 114 115 116 121 128 130 135 144 166 184 184
156 211 309 282 268 121 122 131 131 133 134 127 136 136 126 132 120 143 167 154 160 253 189 149 143 145 145 148 148 147 148 149 153 151 150 149 147 147 145 144 145 144 142 141 141 143 146 145 144 144 146 150 148 145 147 149 148 147 153 153 149 152 152 152 164 157 137 135 131 126 129 136 133 128 132 137 133 129 127 124 125 130 128 121 121 123 121 119 120 131 155 141 124 140 174 148 121
165 252 277 266 275 113 123 138 135 133 136 135 142 124 115 137 120 121 167 162 135 200 232 158 145 147 147 148 150 150 151 152 154 154 153 150 149 150 146 145 146 145 142 142 143 143 145 147 146 145 146 150 149 150 151 151 152 155 157 155 157 157 151 155 164 153 138 137 134 136 141 141 137 139 149 150 144 138 134 136 138 142 139 129 128 133 137 130 119 134 161 174 147 133 123 112 101
178 186 249 247 281 97 129 146 137 131 138 137 133 124 136 150 125 142 182 222 183 196 229 163 145 148 149 149 151 151 152 155 156 155 153 151 151 149 147 146 147 146 142 143 146 144 145 148 149 147 148 149 147 147 150 152 151 153 155 153 157 157 152 158 159 142 138 143 137 142 148 144 141 144 148 150 156 149 135 138 138 133 132 130 127 126 138 141 113 113 120 148 148 127 116 115 114
184 184 238 236 260 102 132 138 130 131 134 130 132 139 150 145 128 157 183 213 214 206 190 162 150 149 151 152 152 152 154 156 155 154 154 153 151 147 147 147 145 148 144 144 148 147 145 148 150 150 149 146 145 146 149 153 152 152 152 150 156 165 164 160 153 139 135 136 131 140 147 147 151 146 141 143 151 146 133 132 132 131 123 121 122 112 119 119 103 110 111 123 131 120 108 114 123
208 201 221 220 218 188 136 126 130 134 129 129 133 139 140 135 136 148 204 227 229 190 160 160 156 150 153 154 151 152 153 155 156 156 155 153 151 148 148 147 146 149 145 145 149 148 145 147 150 150 149 148 148 147 147 150 152 154 155 153 157 160 158 151 147 145 140 133 132 147 152 153 156 148 142 140 134 123 122 126 129 132 124 121 129 121 125 118 108 117 109 94 110 119 111 112 123
210 210 218 213 222 249 137 122 133 128 125 137 134 134 133 143 160 157 241 248 229 179 161 159 158 152 154 153 150 153 153 157 160 158 156 154 153 151 150 149 150 151 147 148 149 148 146 147 149 149 149 151 150 148 149 150 149 151 155 152 148 147 148 146 144 141 137 134 135 144 151 153 146 143 143 131 118 112 122 139 136 130 133 140 136 128 124 111 110 113 98 83 94 99 99 106 116
209 205 239 227 226 255 141 120 131 123 126 135 121 119 120 172 221 174 187 229 221 177 160 155 156 154 156 153 151 155 157 160 161 160 159 157 157 154 154 153 152 152 151 150 148 151 151 147 146 149 150 150 150 148 150 152 148 148 151 145 141 143 146 145 139 130 127 130 130 124 134 145 140 140 143 133 134 137 138 149 148 139 139 138 125 116 114 108 116 107 91 105 101 84 86 103 109
225 156 246 238 227 246 146 117 125 123 126 130 122 116 140 204 212 159 168 198 208 171 156 158 158 157 157 153 154 159 162 160 159 160 159 158 159 156 156 155 152 153 152 149 150 157 154 147 147 151 149 148 147 146 147 147 146 148 148 142 142 144 142 138 131 125 125 130 129 121 124 133 135 136 137 134 138 141 138 141 145 140 129 129 127 125 129 126 128 116 98 93 92 98 96 96 107
224 184 217 236 232 224 120 111 121 118 125 144 149 133 180 204 171 147 172 191 201 167 159 164 158 159 159 153 158 159 160 159 157 160 159 158 160 157 156 154 152 153 149 148 156 159 151 146 150 150 148 149 147 145 146 145 146 149 144 144 146 146 143 136 126 125 129 129 129 132 128 127 128 126 130 135 134 132 135 140 142 138 132 139 145 141 137 120 115 111 98 76 62 123 104 83 109
222 211 206 225 246 175 119 117 126 117 132 160 168 133 185 197 156 166 187 198 232 173 163 165 157 161 158 154 160 157 158 160 160 161 157 158 161 159 157 153 153 153 147 152 161 155 146 147 152 150 149 151 148 146 148 149 150 149 145 148 151 145 140 137 134 135 133 133 134 137 133 130 127 121 123 129 132 135 137 140 142 142 141 144 146 140 133 128 126 109 104 74 21 88 116 90 96
217 220 210 205 234 159 120 123 135 130 147 167 182 158 175 185 151 160 166 150 260 187 166 164 159 162 156 156 159 154 160 162 164 162 156 163 165 159 157 154 153 151 149 156 158 149 145 151 153 150 152 152 148 147 149 151 152 149 147 151 151 147 142 137 145 147 138 136 138 136 134 133 132 129 125 118 119 132 135 136 139 143 143 140 144 132 128 143 131 112 153 113 42 74 117 105 96
207 216 226 200 213 186 126 122 144 145 147 171 198 146 146 165 140 148 153 151 219 217 176 168 162 163 157 160 160 156 162 163 166 162 158 166 165 158 157 155 153 150 152 157 154 149 149 153 155 153 153 151 147 148 149 149 150 148 150 152 149 151 147 137 145 150 142 138 138 139 138 135 140 142 136 125 117 125 132 135 138 143 143 140 142 127 123 131 115 135 156 111 61 40 79 110 117
199 206 222 201 214 214 148 137 151 150 149 173 171 123 193 157 132 140 122 118 190 287 243 193 166 165 159 161 164 160 163 165 167 162 161 166 162 158 157 155 153 150 154 156 154 153 152 154 156 154 152 150 148 149 149 148 150 150 154 154 145 145 145 141 147 149 144 143 144 146 141 138 147 146 135 126 123 124 127 133 140 144 142 141 139 131 129 129 129 155 150 127 74 46 49 92 104
201 200 210 206 216 213 155 149 161 160 160 165 141 140 193 138 119 132 115 130 183 180 241 276 207 173 162 165 166 163 166 167 168 164 163 165 161 158 157 157 153 152 156 156 156 155 153 155 154 152 153 151 150 152 152 151 153 157 158 155 152 148 143 145 152 151 147 146 146 151 146 141 146 144 138 128 129 129 122 126 137 137 141 152 149 144 145 146 145 134 138 162 65 52 46 69 89
221 204 201 209 214 202 155 145 155 163 158 153 142 156 165 134 140 164 136 156 169 151 191 275 269 190 165 171 167 165 170 166 167 167 164 164 162 159 158 158 154 156 156 155 158 155 153 156 153 154 157 155 154 155 157 156 159 166 161 158 162 157 152 153 155 153 152 148 148 153 152 151 148 145 149 139 133 133 126 131 137 132 138 149 149 146 144 151 142 114 123 157 108 54 75 75 80
252 230 216 214 214 214 160 141 146 158 152 157 152 151 149 135 154 171 147 159 165 149 151 188 260 224 171 179 170 167 172 165 168 170 165 163 163 160 159 160 158 158 156 155 162 157 155 158 155 158 162 159 161 162 164 164 166 172 165 163 166 159 158 160 158 154 151 149 152 154 153 157 149 146 154 144 133 132 132 139 138 138 147 147 149 145 137 146 140 122 137 157 174 189 167 115 90
263 265 271 246 220 204 137 134 147 160 156 165 146 135 147 139 148 172 160 160 173 164 153 173 217 238 195 209 177 171 172 166 171 170 166 165 166 163 161 163 162 160 158 159 166 162 159 161 158 162 163 162 167 168 169 169 170 173 168 169 170 162 162 163 159 154 149 148 154 153 148 153 151 151 156 146 143 139 135 140 138 144 153 156 160 136 130 145 137 133 153 162 189 151 107 96 108
258 264 276 271 219 162 130 139 153 170 170 159 149 143 160 151 150 168 170 166 173 170 163 170 177 159 203 260 240 184 176 170 173 172 168 169 169 166 164 167 165 162 161 164 169 164 162 163 162 165 164 164 170 171 173 172 171 175 172 174 174 166 167 168 160 153 149 147 152 158 154 156 156 154 153 148 149 146 141 146 152 154 150 159 170 152 151 163 141 134 134 136 205 150 114 95 112
256 258 254 271 211 170 164 153 152 166 173 161 165 156 150 155 153 163 174 171 162 167 174 169 169 174 185 212 238 204 185 174 174 175 171 171 172 168 167 170 168 165 165 167 170 168 166 165 164 169 168 168 171 172 174 172 172 177 173 175 176 166 166 168 163 155 152 151 154 161 162 160 159 154 156 158 150 145 147 151 157 159 152 160 170 162 162 162 151 159 145 130 252 134 119 119 127
236 247 243 256 214 205 210 155 154 170 169 163 173 164 145 155 158 166 176 171 163 169 175 173 176 179 176 205 223 213 197 180 175 179 175 173 176 169 168 173 171 169 169 171 173 171 171 167 166 172 173 171 173 173 173 172 173 175 172 173 170 163 168 171 171 163 155 158 161 162 162 163 164 157 159 165 153 149 157 153 151 155 162 165 162 168 170 162 169 181 162 138 112 61 90 119 123
220 233 239 230 208 225 220 148 168 191 164 166 179 168 147 163 163 166 170 165 165 171 172 174 180 175 174 205 209 207 210 192 179 181 177 177 178 170 170 176 175 172 173 175 176 175 173 169 169 173 173 174 176 174 173 172 171 173 174 175 167 164 176 175 177 174 161 165 170 165 165 169 172 164 161 172 161 157 164 157 150 155 167 172 159 167 171 163 179 174 160 146 115 91 81 100 90
222 211 229 237 221 228 221 166 189 227 173 175 189 179 137 165 162 164 176 166 164 175 174 171 173 169 187 211 199 189 201 199 185 183 182 180 180 174 172 178 179 175 176 177 178 178 174 170 171 174 175 176 176 175 176 173 172 174 176 179 172 170 180 180 180 183 172 176 176 167 166 169 176 170 164 177 173 162 163 160 165 162 161 174 167 160 164 168 175 158 161 173 133 123 94 54 23
236 197 205 229 239 239 232 197 206 241 220 183 193 192 139 152 151 166 181 167 166 177 163 155 165 169 190 207 195 180 187 199 190 186 188 183 180 180 177 180 183 179 177 179 180 179 174 170 172 174 176 177 177 178 179 177 176 176 177 181 181 177 182 182 184 188 182 184 180 167 167 169 175 174 167 177 177 169 169 165 175 174 159 168 176 177 182 177 169 153 164 176 150 145 130 79 35
236 246 224 219 234 254 263 240 220 222 240 206 190 191 159 142 133 154 167 156 172 171 142 142 165 184 207 199 182 177 184 197 193 188 198 192 182 182 181 182 187 182 178 180 181 179 172 169 173 175 176 178 179 179 180 180 180 180 181 183 184 186 188 182 183 193 186 182 180 169 169 168 171 179 177 179 176 174 181 169 170 181 167 159 171 193 197 175 162 159 166 165 159 161 150 142 114
229 272 284 218 204 226 245 245 227 212 238 242 197 191 185 143 140 144 142 153 178 162 143 160 169 181 203 188 168 178 191 195 190 186 208 207 190 184 183 186 190 187 180 181 182 179 172 169 172 176 177 178 180 181 180 181 182 182 186 186 185 189 192 181 182 194 187 179 182 175 171 169 171 182 182 181 182 180 184 176 171 183 174 160 180 194 185 177 168 163 168 167 170 171 164 180 172
222 248 270 216 183 206 223 231 236 220 233 240 216 197 174 137 157 173 164 158 168 160 152 164 168 176 188 181 172 178 183 179 180 197 213 211 197 185 183 188 193 190 183 181 182 179 173 170 173 176 179 179 180 182 181 182 184 184 188 191 189 189 190 182 183 191 186 183 187 180 177 177 177 185 183 181 184 181 181 179 177 183 177 174 188 179 169 183 179 170 179 175 172 173 169 184 199
217 210 229 220 182 214 220 216 232 233 228 230 225 209 178 140 154 168 162 155 157 165 162 159 170 175 174 182 180 173 174 167 172 201 206 204 197 182 182 189 192 190 180 174 177 179 174 171 174 177 180 181 180 181 182 184 185 186 188 193 193 190 188 185 186 189 185 187 192 186 184 187 185 188 186 184 186 186 183 180 183 191 183 177 179 171 174 186 176 174 187 180 176 187 187 192 206
220 204 199 208 190 201 216 214 216 229 239 235 230 224 191 99 123 147 153 151 145 151 164 161 167 173 171 178 173 165 174 175 178 192 190 192 196 185 185 187 187 182 171 169 173 176 173 171 175 179 182 183 182 180 183 185 187 189 189 192 195 195 193 190 188 189 188 190 194 191 188 192 195 193 187 186 188 190 187 181 187 197 189 178 176 179 187 183 172 170 173 180 190 196 206 205 209
219 208 186 203 204 195 210 219 216 223 238 247 245 231 152 104 124 139 139 135 126 131 143 140 145 158 166 168 167 172 181 182 184 185 177 181 200 191 179 181 189 180 170 178 179 172 171 172 175 179 182 185 184 182 183 186 188 190 191 192 194 196 198 197 190 190 192 192 195 197 195 194 199 199 193 195 195 191 187 185 188 193 187 180 177 178 180 179 184 178 167 181 209 199 201 213 216
211 220 197 206 219 202 202 215 216 217 223 238 246 231 138 128 139 133 126 120 117 126 126 113 119 131 138 153 164 181 185 180 178 176 168 173 206 200 166 178 197 186 175 185 182 172 172 172 174 180 183 184 185 185 185 188 189 191 193 194 195 196 199 200 197 194 194 195 197 201 200 198 200 202 202 205 201 191 187 188 189 189 187 185 180 178 177 178 193 199 177 185 214 207 203 223 227
198 221 213 208 219 215 211 216 216 217 217 221 223 142 104 120 133 131 126 121 119 127 127 114 106 107 113 159 167 178 179 163 161 165 156 172 205 207 174 171 187 172 171 182 183 179 177 172 174 180 183 184 185 187 188 190 190 192 194 195 196 198 199 200 202 200 196 197 199 201 202 203 204 202 201 203 200 193 192 189 189 191 190 190 187 182 181 182 194 208 204 197 208 214 208 226 243
201 213 219 222 236 241 236 226 222 218 217 202 134 109 118 128 135 142 136 127 121 118 120 121 118 118 123 136 141 166 196 168 180 171 158 188 205 204 186 176 178 151 153 164 175 187 175 172 176 179 184 189 189 189 190 191 192 194 196 198 199 199 200 201 202 202 200 200 201 201 202 205 208 203 198 198 197 195 194 190 190 195 194 196 196 189 185 189 198 203 211 214 213 223 226 222 240
228 207 210 222 245 257 264 246 225 213 221 198 131 133 148 145 143 152 144 132 123 119 118 120 126 126 125 115 95 110 173 200 244 189 180 196 196 196 181 170 175 155 150 175 186 181 174 172 173 178 187 196 196 193 193 194 195 196 197 199 202 201 201 202 203 203 202 202 203 203 201 203 206 206 201 197 195 195 196 195 195 198 197 198 201 199 192 196 209 210 213 220 213 221 236 227 226
231 238 230 234 239 239 243 257 241 212 223 203 138 143 154 147 149 156 149 138 130 125 116 113 113 106 114 114 69 61 138 146 144 156 182 212 198 192 173 150 149 141 154 184 185 179 179 172 169 180 190 198 198 196 199 200 199 201 200 202 205 206 205 205 205 203 203 205 205 204 205 203 202 205 207 199 193 194 197 197 197 197 199 201 202 206 202 200 214 220 219 224 217 217 232 232 223
238 281 295 266 253 236 219 222 241 239 230 200 149 147 138 110 141 148 137 130 130 120 103 99 99 78 72 98 67 46 110 126 129 138 156 219 207 192 163 148 159 156 155 165 174 183 183 173 175 183 188 195 196 198 207 208 206 206 206 205 208 210 209 208 207 204 203 208 208 206 208 207 202 204 206 202 198 197 198 198 199 197 198 201 203 206 205 203 210 217 218 226 227 219 221 228 231
223 246 247 232 230 244 240 220 219 239 248 203 150 138 105 60 113 129 119 114 118 112 101 96 93 82 65 68 65 45 87 113 109 101 93 90 146 157 157 155 168 162 142 141 165 192 188 181 185 183 185 195 194 193 206 213 217 216 212 211 215 220 217 212 209 207 205 207 208 209 209 209 206 204 204 204 203 203 202 200 201 202 201 202 203 204 207 209 210 212 216 225 228 222 217 221 230
218 224 229 220 211 223 237 230 216 218 244 251 143 134 123 89 118 125 119 114 114 112 110 108 101 100 97 91 89 65 87 112 100 77 65 58 64 84 91 57 89 156 135 126 142 177 181 183 187 180 184 196 193 194 203 214 226 224 218 217 220 225 227 220 211 208 208 207 207 208 209 209 209 208 207 205 205 207 208 204 203 206 206 205 205 204 207 211 211 212 215 220 224 223 220 222 228
Height
768 768 767 769 768 772 773 775 794 795 795 805 798 796 788 774 778 777 777 778 769 759 751 749 746 747 759 768 769 767 764 766 769 781 798 795 792 798 798 801 803 804 807 808 810 811 812 814 815 816 817 817 818 819 820 820 821 822 823 824 824 825 825 826 826 827 827 826 827 826 825 825 824 824 826 827 828 829 830 830 830 831 832 833 833 833 833 833 834 834 835 836 836 836 835 836 838
767 767 766 769 767 774 779 780 801 802 800 808 798 794 784 774 781 779 777 776 767 756 749 747 747 748 753 756 756 762 772 768 762 772 784 787 793 798 798 801 803 805 807 809 811 812 814 815 816 817 817 818 818 820 821 821 822 823 824 825 825 826 826 827 827 827 827 827 826 826 826 825 825 826 827 828 829 830 831 831 832 832 833 833 834 834 834 834 835 836 836 836 836 835 836 837 838
768 768 766 768 768 773 781 787 800 802 805 808 800 791 782 781 782 775 770 765 756 750 751 751 751 753 756 763 763 771 782 773 765 774 783 790 792 796 800 801 803 806 807 810 812 813 814 815 816 817 817 819 819 821 822 823 824 824 825 826 826 827 828 828 828 828 827 827 827 827 827 827 827 828 829 829 830 832 832 833 833 833 833 834 834 835 835 835 836 837 837 837 836 836 837 838 839
766 767 765 766 774 779 786 794 796 799 805 802 800 791 781 781 775 770 764 756 750 749 755 756 758 755 758 773 771 773 783 777 775 778 784 791 791 795 799 801 804 805 808 810 812 813 814 815 816 817 818 820 821 823 823 824 825 826 826 827 828 828 829 829 829 828 827 827 828 828 829 829 830 830 830 830 832 834 834 835 835 835 834 835 835 836 836 837 837 838 838 837 836 837 839 840 840
765 766 764 765 779 785 787 795 793 798 801 794 798 790 778 775 770 770 761 752 751 754 757 757 764 757 756 768 768 777 783 780 780 780 784 791 793 796 799 802 804 805 809 810 812 813 814 816 817 818 820 821 822 824 824 825 826 827 827 827 829 829 830 830 830 829 829 829 829 830 831 831 831 831 832 833 834 835 836 836 836 836 836 836 836 837 837 838 838 839 839 838 837 838 841 841 842
765 766 762 763 773 779 788 797 797 798 790 782 791 785 773 771 768 767 762 756 752 752 754 756 762 761 764 766 766 775 777 778 782 783 785 791 795 798 800 802 804 806 809 811 813 814 815 817 818 820 821 822 824 824 825 826 827 827 828 828 829 830 831 831 831 830 830 831 831 832 833 833 833 833 834 835 836 837 837 837 837 837 837 837 837 838 838 839 840 840 840 839 839 840 842 842 843
765 767 766 771 775 779 793 799 797 795 782 774 781 778 769 768 765 764 764 763 760 755 754 757 756 763 775 771 773 776 772 777 780 784 788 791 797 798 801 803 805 808 809 812 813 815 817 817 819 821 822 824 825 826 826 827 828 828 829 830 830 831 832 832 832 832 832 832 833 833 834 835 835 835 837 837 838 838 838 838 838 838 838 838 838 839 839 840 841 841 841 841 841 842 843 844 844
764 768 770 782 788 788 794 794 792 788 779 773 772 769 765 763 762 764 766 768 768 760 757 757 755 770 782 774 782 780 774 780 781 787 790 792 798 799 802 803 806 808 810 813 814 816 817 818 820 822 823 825 826 827 827 828 829 830 831 831 831 832 832 833 833 833 833 833 834 834 835 836 837 838 838 839 839 839 839 839 839 839 839 839 840 840 841 842 842 842 843 843 843 844 845 845 846
761 768 775 785 791 793 794 792 789 782 779 774 768 766 763 762 761 763 768 773 769 761 760 758 758 775 784 779 784 780 776 784 785 789 792 795 798 800 803 804 806 808 811 813 815 817 818 820 821 823 824 825 827 827 828 829 830 831 832 832 833 833 833 834 833 834 834 834 835 836 837 837 838 839 839 840 840 840 840 840 840 840 840 840 841 841 842 843 843 843 844 844 844 845 846 846 848
763 771 779 785 789 795 795 793 790 782 779 772 768 767 765 764 761 765 775 780 770 763 762 757 762 775 782 785 786 781 782 785 787 792 794 797 798 801 804 805 807 808 811 814 816 818 819 821 822 824 825 826 827 828 829 830 831 832 833 833 834 834 834 835 834 835 835 836 837 837 838 839 839 840 841 841 841 841 841 841 841 841 841 842 842 842 843 844 845 844 845 846 846 846 847 848 849
771 774 779 789 793 798 795 793 792 784 778 771 771 767 764 762 763 773 780 779 768 765 763 761 772 777 781 788 786 782 782 786 788 792 795 798 800 802 804 806 809 809 812 814 817 819 820 822 823 825 825 827 828 829 830 830 832 833 834 834 835 835 835 836 836 836 837 838 838 839 840 840 841 841 842 842 842 842 842 842 842 842 843 843 843 844 845 845 846 846 847 847 848 848 848 849 849
777 780 785 795 793 796 791 788 791 786 781 777 776 769 763 762 768 779 780 778 773 772 767 765 773 773 785 794 786 782 782 786 788 791 795 799 801 803 806 808 810 811 813 815 817 819 821 823 824 826 827 828 829 830 831 831 833 833 835 835 836 836 836 837 837 838 838 839 839 840 841 841 842 843 843 843 843 843 843 844 843 844 844 845 845 845 846 846 847 847 848 848 849 849 849 850 850
776 781 788 795 786 789 789 786 788 785 786 782 778 771 764 766 773 778 778 779 778 781 772 763 765 769 787 793 785 782 783 786 788 791 795 799 802 804 807 808 811 812 814 816 818 820 822 823 825 826 827 829 830 831 832 833 834 834 836 836 837 837 837 838 838 839 839 840 841 841 842 843 844 844 844 844 844 844 844 845 845 845 846 846 847 847 848 848 848 849 849 849 850 850 850 851 851
771 774 783 792 782 782 785 786 785 783 789 784 777 772 769 772 773 772 774 781 782 779 770 757 759 773 787 790 790 787 783 787 789 792 794 799 803 804 808 809 811 813 815 817 819 821 822 824 825 827 828 830 831 832 833 834 835 836 837 837 838 838 839 839 839 839 840 841 842 842 843 844 845 845 845 845 845 845 845 846 846 847 847 848 848 848 849 849 850 850 850 851 851 852 852 852 853
766 772 779 786 784 784 781 779 778 782 790 784 778 774 774 775 769 770 772 780 782 771 766 759 758 775 786 788 792 786 782 786 789 792 795 800 803 805 808 810 812 813 816 818 819 822 823 825 825 827 829 830 832 833 834 835 836 837 838 839 839 840 840 840 840 840 841 842 843 844 844 844 845 846 846 846 846 847 847 848 848 848 849 849 849 849 850 851 851 851 852 852 852 853 854 854 855
759 772 782 785 788 790 781 773 774 783 789 783 778 774 778 777 767 772 771 774 779 768 768 766 758 770 779 780 782 779 781 786 789 793 796 801 804 806 808 810 812 814 816 818 820 822 823 825 826 828 830 831 833 833 835 835 837 838 839 840 840 841 841 842 842 842 842 843 844 845 845 845 846 847 847 847 848 848 849 849 850 850 851 851 851 851 851 852 852 853 853 853 854 855 855 856 856
755 775 787 791 790 788 781 775 776 780 784 781 779 777 781 781 771 771 768 770 776 771 770 766 758 763 770 774 775 776 782 786 789 794 798 802 804 806 809 810 812 814 817 819 820 822 824 825 826 828 830 832 833 833 835 836 837 839 839 840 841 842 842 843 843 843 844 844 845 845 845 846 846 847 848 849 849 850 851 851 852 852 852 852 852 852 853 853 853 854 854 855 856 856 857 857 858
762 782 789 794 786 779 778 773 770 771 778 780 780 778 779 783 778 771 771 775 775 772 770 763 760 762 767 772 774 778 783 786 789 793 797 801 804 807 809 810 811 813 816 819 821 823 824 826 826 828 830 831 833 834 835 836 837 839 840 841 841 842 843 843 843 844 844 844 845 845 846 847 847 848 849 850 851 851 852 853 853 854 854 854 854 854 854 854 855 855 856 857 857 858 858 858 859
767 780 782 788 777 768 765 764 765 768 774 777 777 776 776 779 777 772 778 783 777 776 775 767 768 769 770 773 775 780 782 786 789 792 796 799 802 804 806 809 810 812 814 818 821 822 824 826 827 828 830 831 832 834 835 836 838 839 840 841 842 843 844 844 844 845 845 845 846 846 847 848 849 850 851 852 853 853 854 854 855 855 856 856 856 856 857 857 857 857 858 858 859 859 859 859 860
764 771 778 781 771 764 757 759 764 764 768 774 778 776 777 777 774 776 781 785 781 781 780 775 778 777 775 775 775 780 782 786 790 792 795 797 800 802 805 808 810 812 814 817 820 822 824 825 827 828 829 831 832 834 835 836 837 839 840 841 842 843 844 845 845 845 846 846 846 847 848 849 850 851 852 853 854 854 855 855 856 856 857 857 858 858 858 858 859 859 859 859 859 859 859 860 860
762 767 774 769 760 763 758 756 759 761 766 772 777 778 780 777 774 778 781 788 790 783 777 774 777 776 775 777 776 779 783 786 790 793 795 797 800 802 805 807 810 812 814 817 820 822 824 825 827 828 829 830 832 834 835 837 837 839 840 841 842 843 845 846 846 846 846 847 847 848 849 850 851 852 853 854 854 855 855 856 857 858 858 858 859 859 860 860 860 860 860 860 860 859 859 860 860
760 762 762 756 749 760 759 753 756 760 764 771 776 779 781 777 777 780 781 790 790 781 774 769 769 771 773 775 776 779 783 786 790 792 795 797 800 802 805 808 810 813 814 816 819 821 823 825 827 828 830 830 832 833 835 837 837 839 841 842 843 844 845 846 847 847 847 848 848 849 850 851 852 854 854 854 855 855 856 857 858 858 859 859 859 860 861 861 861 860 860 860 860 860 860 860 861
759 762 756 751 743 749 755 753 755 758 764 773 776 776 777 779 783 780 780 785 780 775 774 767 766 768 770 773 776 780 783 786 789 791 794 796 799 801 804 808 810 812 814 816 818 821 823 824 827 828 829 830 831 833 834 836 837 839 841 842 843 843 845 847 848 848 849 848 849 850 852 852 853 854 855 855 856 856 857 858 858 859 859 860 860 860 861 861 861 861 860 860 860 861 861 862 862
753 766 758 749 740 741 750 752 751 756 764 769 770 774 778 782 784 781 781 780 773 773 773 766 765 767 769 773 776 780 783 786 788 791 794 796 799 802 804 807 811 812 814 816 818 820 823 824 826 828 829 830 831 833 834 836 837 839 840 842 843 843 844 846 848 849 850 850 850 851 852 853 853 854 855 855 856 857 857 858 859 859 860 861 861 861 862 862 861 860 860 860 861 862 862 862 862
747 761 756 744 738 738 745 748 750 756 762 765 770 777 779 778 779 781 781 777 771 771 772 768 766 769 771 774 777 780 783 785 788 791 794 797 799 801 805 807 810 812 813 816 818 819 822 824 825 827 828 830 832 833 835 836 837 839 840 842 843 844 845 847 848 848 849 850 852 852 853 854 854 855 855 855 856 858 858 858 859 859 860 861 861 861 862 862 861 860 861 861 862 862 862 862 862
743 749 749 743 742 737 741 751 756 758 759 765 775 780 779 775 776 783 779 773 770 767 772 772 768 772 774 775 778 780 783 785 788 791 793 796 799 801 804 807 809 812 814 815 817 819 821 824 826 827 828 830 831 833 835 836 838 839 840 842 843 845 846 847 849 849 849 851 853 853 854 856 856 856 855 854 855 856 857 859 860 860 860 861 861 862 862 862 862 861 861 862 862 862 862 862 862
734 739 741 740 742 735 736 752 760 759 761 766 777 784 781 775 780 790 781 771 770 769 773 772 770 774 775 777 779 780 784 786 788 790 793 795 798 801 803 807 809 811 814 815 817 818 821 823 825 827 828 830 831 833 835 836 837 838 840 842 843 845 846 847 848 850 851 852 853 854 855 857 858 857 856 855 854 855 857 859 860 861 861 862 862 863 863 862 862 862 862 862 862 862 863 862 862
729 736 743 741 741 737 735 750 759 760 767 769 776 786 785 781 786 788 779 772 772 772 772 770 772 775 775 778 780 782 783 786 789 790 792 795 797 801 803 805 808 811 813 815 817 818 820 822 825 827 828 830 831 833 834 836 837 838 840 841 843 844 846 847 848 849 851 852 853 854 855 857 858 859 858 858 858 858 859 860 861 861 862 862 862 863 863 863 863 862 862 862 862 862 863 862 863
730 736 752 750 744 744 739 750 760 761 771 772 777 795 797 791 788 780 773 773 772 772 773 773 774 775 776 778 781 783 783 784 788 790 792 795 797 800 803 805 807 810 812 815 817 818 820 822 825 827 828 830 831 833 834 836 837 838 840 841 843 844 845 846 847 849 850 852 853 853 855 857 859 860 859 859 860 860 861 861 861 862 862 862 863 863 863 863 863 862 862 862 862 862 862 862 863
736 739 752 756 755 754 745 753 760 763 773 769 776 805 808 793 785 778 772 772 773 774 775 773 774 775 776 778 781 782 783 784 787 790 793 795 797 799 801 804 807 809 812 815 817 817 819 822 825 827 828 830 831 833 834 835 837 838 839 841 842 844 845 846 847 849 850 851 853 853 854 856 857 858 858 859 860 861 861 862 862 862 863 863 863 863 863 863 863 862 862 862 862 862 863 863 864
740 745 750 756 766 764 751 756 761 769 779 770 780 809 809 793 787 781 774 776 779 777 775 773 774 775 776 778 781 783 783 785 787 789 793 795 797 799 801 804 806 809 811 814 816 817 819 822 825 826 828 830 831 833 834 835 837 838 839 841 842 844 845 846 848 849 850 851 852 853 853 854 855 856 858 859 859 861 861 861 862 862 863 863 863 863 863 863 863 863 863 862 863 863 864 864 864
742 755 760 758 766 766 758 759 760 771 779 773 786 805 800 790 789 783 777 781 784 780 775 774 775 775 777 780 781 784 785 785 787 789 792 795 797 798 801 803 806 809 811 814 815 817 820 822 824 826 828 830 831 833 834 835 837 837 839 841 842 843 845 846 847 849 850 851 852 852 853 854 855 856 857 858 859 860 861 861 862 862 862 862 863 863 863 863 863 863 863 863 863 863 864 864 864
746 755 764 759 763 768 768 767 759 763 773 774 782 795 796 788 787 786 781 783 785 783 779 775 776 776 778 781 781 784 786 786 787 788 792 795 796 798 801 803 806 808 811 814 815 817 820 822 825 826 828 830 831 833 834 836 837 838 839 840 842 843 844 846 847 848 850 851 852 852 853 854 855 856 857 858 859 860 860 861 862 862 862 862 863 863 863 863 863 863 863 863 864 863 863 864 864
751 751 756 755 756 760 769 775 765 759 770 776 778 789 795 787 784 787 785 786 787 789 790 783 778 777 778 781 783 784 786 788 787 787 791 793 795 798 801 803 806 808 811 813 815 818 819 822 825 826 828 830 832 833 834 836 837 838 839 840 842 843 844 846 846 848 849 851 852 852 853 854 854 855 856 857 858 859 859 860 861 862 862 862 862 863 863 863 863 863 864 864 864 864 863 863 864
750 751 753 753 749 752 765 773 767 763 770 777 784 791 792 788 787 788 788 789 791 793 794 792 784 779 780 781 782 784 786 788 787 787 790 792 795 798 801 803 806 808 811 813 815 817 819 822 824 826 828 830 832 833 834 836 836 838 839 840 842 843 844 845 846 848 849 850 851 852 852 853 854 855 856 857 857 858 859 860 861 862 862 862 862 863 863 863 863 863 864 864 864 864 863 863 864
736 736 741 748 747 749 756 761 759 760 770 777 784 789 788 795 794 787 790 791 793 797 796 799 795 783 781 781 781 784 786 786 785 786 789 792 795 798 801 803 806 809 811 813 815 817 819 821 824 826 828 829 831 833 834 835 836 837 839 840 841 843 844 845 846 848 848 850 851 851 852 853 854 855 856 856 857 858 859 860 861 861 862 862 862 863 863 863 863 864 864 864 864 864 864 864 864
726 726 730 737 740 743 746 754 755 755 771 779 778 781 782 794 797 785 786 789 790 798 800 804 803 791 784 782 781 783 785 785 784 786 789 792 795 797 801 804 806 809 811 814 816 817 819 821 823 825 827 829 830 832 833 834 836 837 838 839 841 842 844 845 846 848 848 849 850 851 851 853 854 855 855 856 857 858 858 859 860 861 862 862 862 863 863 863 864 864 864 865 865 865 865 864 865
730 730 733 736 735 738 741 750 755 754 772 778 772 783 785 786 795 787 781 787 789 792 795 799 799 795 790 785 783 783 783 783 783 786 788 791 795 797 801 804 806 809 811 814 816 817 819 821 823 825 826 828 830 831 833 834 835 836 838 839 840 842 843 845 846 847 848 849 850 850 851 852 853 854 855 855 856 857 858 859 860 861 861 862 862 863 863 864 863 864 864 865 865 865 865 864 865
735 732 738 742 731 736 748 751 754 754 767 776 771 785 794 783 786 786 781 785 787 787 788 789 791 793 792 789 787 784 783 784 785 786 788 791 794 796 800 803 805 808 811 814 816 817 820 821 823 825 826 828 829 831 832 834 835 836 838 839 840 841 843 844 846 847 848 849 850 850 851 852 853 854 855 855 856 857 858 859 860 860 861 862 862 863 863 864 863 864 864 864 865 865 865 865 865
737 736 742 745 728 736 755 750 753 753 756 769 770 778 789 784 783 782 779 781 783 784 785 785 787 789 790 789 788 786 784 785 786 786 787 790 793 796 799 802 805 808 811 813 816 817 819 821 823 824 826 827 829 830 832 833 835 836 838 839 840 841 843 844 845 847 848 849 850 850 851 852 853 854 855 855 856 856 857 859 859 860 861 862 862 862 863 863 863 863 864 864 864 864 865 865 866
739 737 740 741 731 734 741 735 742 748 748 756 764 778 786 784 790 788 778 779 782 783 785 787 788 787 789 792 789 786 784 783 786 786 786 789 791 795 798 801 804 806 810 812 814 816 818 820 823 825 826 827 829 830 832 833 835 837 838 839 840 841 842 843 845 846 847 848 849 850 851 852 852 853 854 855 855 856 857 858 859 860 861 861 861 862 862 862 863 863 863 864 864 864 864 865 866
743 738 732 732 733 733 730 729 738 751 761 757 759 788 798 781 788 792 781 782 786 785 786 789 791 789 792 796 791 787 785 782 783 784 785 787 790 794 798 800 802 805 808 811 813 815 818 820 822 825 826 827 829 830 831 833 834 836 837 839 840 841 842 843 844 845 847 848 849 850 851 851 852 853 854 855 855 856 857 858 859 860 861 861 861 862 862 862 863 863 863 864 864 864 864 865 865
749 736 724 724 729 731 730 732 743 753 762 753 745 777 801 787 785 788 782 785 788 786 787 788 790 792 792 792 789 787 788 784 782 783 784 786 789 792 796 799 800 803 807 810 812 814 816 819 821 824 826 827 828 830 831 833 834 836 837 838 840 841 842 843 844 845 846 847 848 849 850 851 852 852 853 854 855 856 857 858 858 859 860 861 861 861 861 862 862 863 863 864 864 865 865 865 866
746 723 718 726 727 729 730 733 746 745 741 741 733 749 786 795 787 782 780 788 790 785 789 791 790 792 791 789 786 785 787 785 784 785 784 785 789 791 794 797 799 801 804 807 810 813 815 817 820 822 825 826 828 830 831 832 834 835 837 838 840 841 842 843 844 845 845 846 847 848 850 851 851 852 853 853 854 855 856 857 858 858 859 860 861 861 861 861 862 863 863 864 864 865 865 866 866
736 714 715 723 723 726 729 735 744 738 740 754 743 739 776 800 788 774 776 789 792 785 791 799 795 793 792 788 787 785 785 785 784 785 785 785 787 790 793 795 797 799 802 805 807 810 813 816 819 822 824 826 827 829 831 832 834 835 836 837 839 840 841 842 844 844 845 846 847 848 849 850 851 852 853 853 854 855 856 856 857 858 858 859 860 861 861 861 862 863 863 864 864 865 866 866 866
724 714 716 715 719 727 731 739 740 739 754 766 750 736 768 802 793 778 783 790 789 784 789 796 794 795 792 787 788 789 787 786 785 785 786 785 786 788 792 794 796 797 799 803 805 808 812 815 818 821 822 825 826 828 830 831 833 835 836 837 838 839 840 842 843 844 845 846 847 848 849 850 851 851 852 853 854 855 855 856 856 857 858 858 860 860 861 862 862 863 863 864 864 865 866 866 866
717 722 726 720 725 730 734 738 738 755 771 761 743 731 755 800 800 781 783 783 779 780 784 786 786 789 788 782 784 786 786 786 786 786 786 786 786 787 790 793 795 796 799 802 804 807 810 813 817 820 821 823 825 827 829 831 832 834 835 836 837 839 840 841 842 843 844 845 846 847 848 849 850 851 852 853 853 854 855 856 856 857 858 858 859 860 861 862 862 863 863 863 864 865 865 866 866
720 729 734 739 745 744 749 751 751 776 783 754 736 725 742 790 797 776 773 771 771 777 779 781 783 783 782 780 780 780 783 785 786 788 787 785 785 786 789 792 794 796 798 801 803 806 809 812 815 819 821 822 824 826 828 830 832 833 834 836 837 838 839 840 842 843 844 845 846 847 848 849 850 851 852 852 853 854 854 855 856 856 857 858 858 859 860 861 862 862 862 863 864 864 865 865 866
727 733 742 760 771 773 779 776 771 783 775 747 732 728 750 784 782 768 769 765 766 770 769 774 777 778 779 780 781 780 781 784 787 790 788 785 786 787 789 792 794 796 798 800 803 805 808 811 814 817 819 821 823 824 827 829 830 832 833 835 836 838 839 840 841 842 843 844 846 847 847 848 849 850 851 852 852 853 854 855 856 856 856 857 858 859 860 860 861 862 862 863 864 864 865 865 865
736 738 750 769 777 790 801 788 780 782 768 747 730 733 770 794 777 765 766 762 762 763 762 766 771 774 777 778 780 781 781 783 786 788 788 787 788 788 789 792 794 796 799 801 803 805 808 810 813 816 818 821 823 824 826 827 829 831 833 834 835 837 838 839 840 841 842 844 845 846 847 848 849 849 850 851 852 853 854 854 855 856 856 857 857 859 860 860 861 861 862 863 864 864 864 865 865
738 730 739 759 762 776 794 787 784 783 768 751 736 744 780 796 778 763 760 759 760 761 760 763 770 774 775 777 779 781 781 782 784 786 787 789 789 788 790 791 794 797 799 801 803 804 807 809 812 815 817 820 822 823 825 826 828 830 831 833 834 836 837 838 839 840 841 842 843 845 846 846 848 849 850 850 851 852 853 854 855 856 856 857 857 859 860 860 861 862 862 862 863 864 864 865 865
736 724 736 751 743 746 762 763 761 763 764 756 750 763 776 777 771 760 758 762 762 763 764 766 775 778 778 780 781 781 782 782 784 786 788 788 789 789 790 791 794 796 799 803 805 806 807 809 811 814 817 820 821 823 824 825 827 829 830 832 833 834 836 837 838 839 840 841 842 843 844 845 846 847 848 850 851 852 853 854 855 856 856 857 857 858 859 860 861 861 862 862 863 863 864 864 865
737 736 744 738 723 727 746 755 745 747 766 760 756 778 780 774 779 768 762 770 768 767 769 771 777 781 783 784 783 783 784 784 785 786 788 789 787 788 789 792 795 796 799 802 807 811 811 810 812 815 818 821 821 822 824 825 826 828 829 831 832 833 835 836 837 838 839 839 841 841 843 844 845 846 847 848 850 851 852 853 854 855 856 856 857 857 858 860 860 861 861 862 862 863 863 864 864
741 747 740 728 725 727 740 758 756 756 769 758 756 782 786 787 795 778 768 776 776 774 775 775 776 779 784 785 785 787 787 788 789 787 787 787 787 788 789 793 796 798 799 800 805 811 810 811 814 817 819 822 822 822 823 825 825 827 829 830 831 833 834 835 836 837 838 839 840 840 841 843 844 845 846 847 848 850 851 852 853 854 855 856 856 857 858 859 859 860 861 861 861 862 863 863 863
729 733 725 732 750 751 749 761 766 768 771 762 768 779 774 780 788 778 775 779 779 780 780 781 783 782 786 787 788 789 788 792 795 793 790 786 785 789 789 792 795 797 800 800 802 807 807 809 813 815 817 819 821 821 822 824 825 826 828 829 831 832 833 834 835 836 838 838 839 840 840 841 842 844 845 846 847 848 850 851 852 853 854 855 856 856 857 858 858 859 860 860 861 862 862 862 863
724 728 728 734 744 746 747 749 754 765 766 769 790 796 783 780 776 772 779 778 777 784 786 788 791 790 791 790 791 790 788 792 796 795 795 789 786 788 789 792 794 796 801 804 806 808 808 809 809 810 813 816 818 820 822 824 824 826 827 828 831 832 833 834 834 835 837 837 839 839 840 841 841 842 844 845 846 847 848 849 850 852 853 854 855 856 857 857 858 858 859 860 860 861 861 861 862
739 745 746 743 738 735 739 736 735 750 760 769 796 815 806 788 773 771 779 779 779 784 789 794 796 796 797 795 795 793 789 791 791 791 794 792 790 790 790 792 795 797 801 805 809 809 809 809 808 809 811 813 815 818 820 823 824 825 826 827 830 832 833 834 833 834 835 836 837 838 839 840 840 841 842 843 845 846 847 848 849 850 851 852 853 855 856 856 857 858 858 859 859 859 860 861 861
737 743 741 740 738 740 754 754 735 734 747 756 780 813 813 785 769 772 775 778 782 783 789 796 798 801 802 798 798 796 791 789 788 790 792 792 792 793 794 795 795 796 799 804 809 809 809 809 808 809 810 810 813 815 818 820 823 825 825 826 828 830 832 833 833 833 833 834 835 836 837 839 839 841 841 842 843 845 846 847 848 849 850 851 852 853 855 855 856 857 857 858 858 858 859 859 860